Date String (YYYY-MM-DD hh:mm:ss) UTC,Instrument flags,Ambient pressure (hPa),Sample flow (lpm),Bypass flow (lpm),Sample temperature (°C),Ambient temperature (°C),ASC tube jacket temperature (°C),LED temperature (°C),Box temperature (°C),Sample RH (%),Span deviation,Mass concentration (μg/m³),Mass concentration (μg/m³),Mass concentration (μg/m³)
DateTimeUTC,F1_M11,P_M11,Q1_M11,Q2_M11,T1_M11,T2_M11,T3_M11,T4_M11,T5_M11,U1_M11,ZSPAN_M11,X0_M11,X2_M11,X1_M11
2022-03-30 17:00:00,,0818.8,5.01,0.00,21.7,21.1,00.0,30.8,23.4,16.0,0000.6,0013.75,0007.47,0006.94
2022-03-30 17:01:00,,0818.8,5.00,0.00,21.7,21.2,00.0,30.8,23.4,15.7,0000.5,0013.33,0007.46,0006.95
2022-03-30 17:02:00,,0818.8,5.00,0.00,21.7,21.1,00.0,30.8,23.5,15.5,0000.8,0013.19,0007.41,0006.93
2022-03-30 17:03:00,,0818.7,5.00,0.00,21.7,21.1,00.0,30.8,23.5,15.8,0000.2,0012.58,0007.42,0006.93
2022-03-30 17:04:00,,0818.8,5.00,0.00,21.8,21.2,00.0,30.8,23.6,16.5,0000.1,0013.10,0007.47,0006.97
2022-03-30 17:05:00,,0818.8,5.00,0.00,21.8,21.2,00.0,30.8,23.6,15.7,0000.2,0013.14,0007.48,0007.00
2022-03-30 17:06:00,,0818.7,5.00,0.00,21.8,21.3,00.0,30.8,23.6,15.3,0000.4,0012.86,0007.47,0007.02
2022-03-30 17:07:00,,0818.7,4.98,0.00,21.8,21.3,00.0,30.8,23.6,15.2,0000.8,0012.20,0007.39,0006.98
2022-03-30 17:08:00,,0818.7,5.00,0.00,21.9,21.4,00.0,30.8,23.7,15.4,0001.1,0011.51,0007.31,0006.94
2022-03-30 17:09:00,,0818.8,5.01,0.00,21.9,21.4,00.0,30.8,23.7,15.9,0002.1,0010.90,0007.30,0006.94
2022-03-30 17:10:00,,0818.8,5.00,0.00,21.9,21.4,00.0,30.8,23.7,15.7,0002.0,0010.88,0007.34,0006.97
2022-03-30 17:11:00,,0818.7,5.00,0.00,21.9,21.4,00.0,30.8,23.7,15.4,0002.3,0011.05,0007.33,0006.98
2022-03-30 17:12:00,,0818.6,5.00,0.00,21.9,21.3,00.0,30.9,23.6,15.4,0002.8,0011.16,0007.38,0007.01
2022-03-30 17:13:00,,0818.6,5.00,0.00,21.9,21.4,00.0,30.9,23.7,15.8,0002.6,0011.30,0007.47,0007.08
2022-03-30 17:14:00,,0818.5,5.00,0.00,21.9,21.4,00.0,30.9,23.7,15.7,0003.3,0011.34,0007.50,0007.10
2022-03-30 17:15:00,,0818.5,5.00,0.00,21.9,21.3,00.0,30.9,23.7,15.7,0003.9,0011.04,0007.49,0007.08
2022-03-30 17:16:00,,0818.5,5.00,0.00,21.9,21.3,00.0,30.9,23.7,16.2,0003.9,0010.78,0007.47,0007.05
2022-03-30 17:17:00,,0818.5,4.99,0.00,21.9,21.3,00.0,30.9,23.6,16.4,0003.7,0010.92,0007.51,0007.06
2022-03-30 17:18:00,,0818.5,4.99,0.00,21.9,21.3,00.0,30.9,23.6,15.8,0003.7,0010.69,0007.55,0007.09
2022-03-30 17:19:00,,0818.5,5.00,0.00,21.9,21.3,00.0,30.9,23.6,15.9,0003.3,0010.48,0007.53,0007.07
2022-03-30 17:20:00,,0818.5,5.01,0.00,21.9,21.3,00.0,30.9,23.6,16.3,0002.1,0010.29,0007.42,0006.99
2022-03-30 17:21:00,,0818.5,4.99,0.00,21.8,21.3,00.0,30.9,23.6,16.2,0001.8,0010.14,0007.31,0006.90
2022-03-30 17:22:00,,0818.5,4.98,0.00,21.9,21.3,00.0,30.9,23.6,15.8,0000.7,0009.88,0007.28,0006.87
2022-03-30 17:23:00,,0818.5,5.00,0.00,21.9,21.3,00.0,30.9,23.7,16.4,0001.1,0009.76,0007.23,0006.85
2022-03-30 17:24:00,,0818.5,5.00,0.00,21.9,21.4,00.0,30.9,23.8,16.9,0001.2,0009.64,0007.18,0006.83
2022-03-30 17:25:00,,0818.4,5.00,0.00,22.0,21.4,00.0,30.9,23.8,16.7,0001.0,0009.61,0007.17,0006.82
2022-03-30 17:26:00,,0818.4,5.00,0.00,22.0,21.4,00.0,30.9,23.8,15.9,0000.6,0009.56,0007.15,0006.82
2022-03-30 17:27:00,,0818.4,5.00,0.00,22.0,21.5,00.0,30.9,23.8,15.5,0001.6,0009.57,0007.14,0006.83
2022-03-30 17:28:00,,0818.4,5.00,0.00,22.0,21.5,00.0,30.9,23.9,15.9,0002.2,0009.88,0007.11,0006.82
2022-03-30 17:29:00,,0818.4,5.00,0.00,22.1,21.5,00.0,30.9,23.9,16.1,0001.9,0009.94,0007.09,0006.82
2022-03-30 17:30:00,,0818.4,5.01,0.00,22.1,21.6,00.0,31.0,23.9,16.0,0002.0,0009.99,0007.09,0006.80
2022-03-30 17:31:00,,0818.4,5.00,0.00,22.1,21.6,00.0,31.0,24.0,15.5,0002.4,0010.22,0007.06,0006.75
2022-03-30 17:32:00,,0818.4,5.00,0.00,22.1,21.6,00.0,31.0,23.9,16.0,0001.9,0010.18,0007.01,0006.70
2022-03-30 17:33:00,,0818.5,5.00,0.00,22.1,21.5,00.0,31.0,23.9,15.4,0002.2,0010.15,0006.98,0006.66
2022-03-30 17:34:00,,0818.5,5.00,0.00,22.1,21.5,00.0,31.0,23.9,15.2,0001.9,0010.17,0006.95,0006.62
2022-03-30 17:35:00,,0818.5,5.00,0.00,22.1,21.5,00.0,31.0,23.9,15.3,0001.7,0010.45,0006.90,0006.55
2022-03-30 17:36:00,,0818.5,4.99,0.00,22.1,21.6,00.0,31.0,24.0,15.8,0000.8,0010.76,0006.87,0006.49
2022-03-30 17:37:00,,0818.5,4.99,0.00,22.2,21.6,00.0,31.0,24.0,15.4,0001.0,0010.68,0006.82,0006.44
2022-03-30 17:38:00,,0818.4,5.00,0.00,22.2,21.6,00.0,31.1,24.0,15.9,0000.4,0010.61,0006.77,0006.39
2022-03-30 17:39:00,,0818.3,5.01,0.00,22.2,21.6,00.0,31.1,24.0,15.0,0000.1,0011.04,0006.74,0006.33
2022-03-30 17:40:00,,0818.4,5.01,0.00,22.2,21.6,00.0,31.1,24.0,15.9,0000.0,0010.99,0006.68,0006.28
2022-03-30 17:41:00,,0818.4,5.01,0.00,22.2,21.6,00.0,31.1,24.0,15.7,0000.0,0010.93,0006.65,0006.27
2022-03-30 17:42:00,,0818.4,5.00,0.00,22.2,21.6,00.0,31.1,24.0,15.5,0000.0,0010.83,0006.72,0006.33
2022-03-30 17:43:00,,0818.4,4.99,0.00,22.2,21.6,00.0,31.1,24.0,15.5,0000.0,0010.90,0006.79,0006.40
2022-03-30 17:44:00,,0818.4,5.00,0.00,22.2,21.6,00.0,31.1,24.0,16.0,0000.0,0010.90,0006.81,0006.42
2022-03-30 17:45:00,,0818.4,5.00,0.00,22.2,21.6,00.0,31.1,24.0,15.5,0000.0,0011.03,0006.82,0006.42
2022-03-30 17:46:00,,0818.4,5.00,0.00,22.2,21.6,00.0,31.1,24.0,15.5,0000.0,0010.87,0006.80,0006.42
2022-03-30 17:47:00,,0818.4,5.00,0.00,22.2,21.7,00.0,31.2,24.1,15.3,0000.0,0010.41,0006.79,0006.45
2022-03-30 17:48:00,,0818.4,4.99,0.00,22.3,21.7,00.0,31.2,24.1,15.8,0000.0,0010.42,0006.79,0006.46
2022-03-30 17:49:00,,0818.4,4.99,0.00,22.3,21.7,00.0,31.2,24.1,15.2,0000.0,0010.40,0006.80,0006.47
2022-03-30 17:50:00,,0818.4,5.00,0.00,22.3,21.7,00.0,31.2,24.1,15.5,0000.0,0009.61,0006.80,0006.49
2022-03-30 17:51:00,,0818.4,5.00,0.00,22.3,21.7,00.0,31.2,24.1,15.7,0000.0,0009.30,0006.82,0006.51
2022-03-30 17:52:00,,0818.4,5.00,0.00,22.3,21.7,00.0,31.2,24.1,14.9,0000.0,0009.30,0006.81,0006.51
2022-03-30 17:53:00,,0818.4,5.00,0.00,22.3,21.7,00.0,31.2,24.0,15.4,0000.0,0009.21,0006.75,0006.46
2022-03-30 17:54:00,,0818.3,5.01,0.00,22.3,21.7,00.0,31.2,24.0,15.0,0000.0,0009.15,0006.70,0006.40
2022-03-30 17:55:00,,0818.4,5.00,0.00,22.3,21.7,00.0,31.2,24.0,14.9,0000.0,0009.11,0006.65,0006.36
2022-03-30 17:56:00,,0818.3,5.00,0.00,22.2,21.6,00.0,31.2,24.0,15.0,0000.0,0009.04,0006.64,0006.36
2022-03-30 17:57:00,,0818.4,5.00,0.00,22.2,21.5,00.0,31.2,23.9,15.4,-000.1,0009.35,0006.65,0006.35
2022-03-30 17:58:00,,0818.3,5.00,0.00,22.2,21.4,00.0,31.2,23.8,15.1,-000.3,0009.96,0006.66,0006.34
2022-03-30 17:59:00,,0818.3,5.00,0.00,22.1,21.4,00.0,31.2,23.8,15.2,-000.2,0010.08,0006.66,0006.33
